When you browse on this site, cookies collect data to enhance your experience and personalize the content and advertising you see.
Visit our Privacy Policy to learn more. By continuing to use the site, you agree to this use of cookies and data.
  • In Switzerland
  • List of Countries
  • For 7 days
  • Water Temperature
  • Satellite Maps
  • Weather Map
  • Weather Widgets
  • user-avatar
    Login

    Hourly Weather Vanadzor

    Today, 25 June, Tuesday

    Time Temperature Precipitation Wind Pressure Humidity
    00:00 +16°C° 0.1 mm 1 mps 637 mmHg 86%
    01:00 +16°C° 0.1 mm 1 mps 637 mmHg 87%
    02:00 +16°C° 0.1 mm 1 mps 637 mmHg 89%
    03:00 +16°C° 0 mm 1 mps 636 mmHg 90%
    04:00 +16°C° 0.1 mm 1 mps 637 mmHg 90%
    05:00 +18°C° 0.1 mm 1 mps 637 mmHg 90%
    06:00 +19°C° 0.1 mm 1 mps 638 mmHg 91%
    07:00 +20°C° 0.1 mm 1 mps 638 mmHg 87%
    08:00 +22°C° 0.1 mm 1 mps 638 mmHg 84%
    09:00 +23°C° 0 mm 2 mps 639 mmHg 79%
    10:00 +24°C° 0.2 mm 2 mps 639 mmHg 76%
    11:00 +25°C° 0.2 mm 2 mps 639 mmHg 74%
    12:00 +26°C° 0.2 mm 2 mps 639 mmHg 71%
    13:00 +26°C° 0.5 mm 2 mps 639 mmHg 71%
    14:00 +26°C° 0.5 mm 2 mps 638 mmHg 71%
    15:00 +26°C° 0 mm 3 mps 638 mmHg 70%
    16:00 +26°C° 0.3 mm 2 mps 638 mmHg 72%
    17:00 +25°C° 0.3 mm 2 mps 638 mmHg 75%
    18:00 +24°C° 0.3 mm 2 mps 638 mmHg 78%
    19:00 +22°C° 0.2 mm 1 mps 638 mmHg 80%
    20:00 +21°C° 0.2 mm 1 mps 638 mmHg 81%
    21:00 +19°C° 0.2 mm 1 mps 638 mmHg 83%
    22:00 +18°C° 0 mm 1 mps 637 mmHg 81%
    23:00 +18°C° 0 mm 1 mps 637 mmHg 80%

    Tomorrow, 26 June, Wednesday

    Time Temperature Precipitation Wind Pressure Humidity
    00:00 +18°C° 0 mm 1 mps 637 mmHg 79%
    01:00 +16°C° 0 mm 1 mps 637 mmHg 79%
    02:00 +16°C° 0 mm 1 mps 637 mmHg 79%
    03:00 +16°C° 0 mm 1 mps 637 mmHg 78%
    04:00 +18°C° 0 mm 1 mps 638 mmHg 80%
    05:00 +18°C° 0 mm 1 mps 638 mmHg 81%
    06:00 +19°C° 0 mm 1 mps 638 mmHg 82%
    07:00 +21°C° 0 mm 1 mps 639 mmHg 77%
    08:00 +22°C° 0 mm 1 mps 639 mmHg 72%
    09:00 +24°C° 0 mm 1 mps 639 mmHg 67%
    10:00 +25°C° 0.3 mm 2 mps 639 mmHg 66%
    11:00 +25°C° 0.3 mm 2 mps 639 mmHg 65%
    12:00 +26°C° 0.3 mm 2 mps 639 mmHg 63%
    13:00 +26°C° 0.7 mm 2 mps 639 mmHg 64%
    14:00 +26°C° 0.7 mm 2 mps 639 mmHg 64%
    15:00 +26°C° 0.7 mm 2 mps 638 mmHg 64%
    16:00 +26°C° 0.6 mm 2 mps 638 mmHg 68%
    17:00 +25°C° 0.6 mm 2 mps 637 mmHg 73%
    18:00 +24°C° 0.6 mm 1 mps 637 mmHg 78%
    19:00 +22°C° 0.2 mm 1 mps 637 mmHg 80%
    20:00 +20°C° 0.2 mm 1 mps 637 mmHg 82%
    21:00 +18°C° 0.2 mm 1 mps 636 mmHg 83%
    22:00 +18°C° 0.1 mm 1 mps 636 mmHg 83%
    23:00 +18°C° 0.1 mm 1 mps 636 mmHg 82%

    Day after tomorrow, 27 June, Thursday

    Time Temperature Precipitation Wind Pressure Humidity
    00:00 +18°C° 0.1 mm 1 mps 636 mmHg 82%
    01:00 +16°C° 0.1 mm 1 mps 636 mmHg 83%
    02:00 +16°C° 0.1 mm 1 mps 636 mmHg 84%
    03:00 +16°C° 0.1 mm 1 mps 636 mmHg 85%
    04:00 +16°C° 0 mm 1 mps 636 mmHg 86%
    05:00 +18°C° 0 mm 1 mps 636 mmHg 87%
    06:00 +18°C° 0 mm 1 mps 636 mmHg 88%
    07:00 +19°C° 0 mm 1 mps 636 mmHg 85%
    08:00 +19°C° 0 mm 2 mps 636 mmHg 83%
    09:00 +21°C° 0 mm 2 mps 636 mmHg 81%
    10:00 +21°C° 0.2 mm 2 mps 636 mmHg 80%
    11:00 +21°C° 0.2 mm 2 mps 636 mmHg 79%
    12:00 +23°C° 0.2 mm 2 mps 635 mmHg 79%
    13:00 +23°C° 0.3 mm 2 mps 635 mmHg 78%
    14:00 +23°C° 0.3 mm 2 mps 635 mmHg 78%
    15:00 +23°C° 0.3 mm 2 mps 635 mmHg 77%
    16:00 +23°C° 0.2 mm 2 mps 634 mmHg 79%
    17:00 +21°C° 0.2 mm 2 mps 634 mmHg 81%
    18:00 +21°C° 0.2 mm 2 mps 634 mmHg 83%
    19:00 +19°C° 0.2 mm 2 mps 634 mmHg 86%
    20:00 +19°C° 0.2 mm 1 mps 634 mmHg 89%
    21:00 +18°C° 0.2 mm 1 mps 633 mmHg 91%
    22:00 +16°C° 0.1 mm 1 mps 633 mmHg 92%
    23:00 +16°C° 0.1 mm 1 mps 633 mmHg 93%

    28 June, Friday

    Time Temperature Precipitation Wind Pressure Humidity
    00:00 +16°C° 0.1 mm 1 mps 633 mmHg 94%
    01:00 +16°C° 0 mm 1 mps 633 mmHg 95%
    02:00 +16°C° 0 mm 1 mps 632 mmHg 95%
    03:00 +15°C° 0 mm 1 mps 632 mmHg 96%
    04:00 +16°C° 0 mm 1 mps 632 mmHg 96%
    05:00 +16°C° 0 mm 1 mps 632 mmHg 96%
    06:00 +16°C° 0 mm 1 mps 632 mmHg 95%
    07:00 +18°C° 0.1 mm 1 mps 632 mmHg 92%
    08:00 +19°C° 0.1 mm 1 mps 632 mmHg 89%
    09:00 +19°C° 0.1 mm 2 mps 632 mmHg 86%
    10:00 +19°C° 0.3 mm 2 mps 631 mmHg 84%
    11:00 +20°C° 0.3 mm 2 mps 631 mmHg 82%
    12:00 +21°C° 0.3 mm 2 mps 631 mmHg 79%
    13:00 +21°C° 0.4 mm 2 mps 631 mmHg 79%
    14:00 +23°C° 0.4 mm 2 mps 630 mmHg 79%
    15:00 +23°C° 0.4 mm 2 mps 630 mmHg 79%
    16:00 +21°C° 1.2 mm 2 mps 630 mmHg 81%
    17:00 +21°C° 1.2 mm 2 mps 630 mmHg 84%
    18:00 +21°C° 1.2 mm 1 mps 630 mmHg 87%
    19:00 +20°C° 1.6 mm 1 mps 630 mmHg 87%
    20:00 +18°C° 1.6 mm 1 mps 630 mmHg 87%
    21:00 +15°C° 1.6 mm 0 mps 630 mmHg 87%
    22:00 +15°C° 0.1 mm 0 mps 630 mmHg 86%
    23:00 +14°C° 0.1 mm 0 mps 630 mmHg 86%

    29 June, Saturday

    Time Temperature Precipitation Wind Pressure Humidity
    00:00 +15°C° 0.1 mm 1 mps 629 mmHg 85%
    01:00 +14°C° 0 mm 1 mps 629 mmHg 86%
    02:00 +14°C° 0 mm 1 mps 629 mmHg 87%
    03:00 +14°C° 0 mm 1 mps 629 mmHg 88%
    04:00 +14°C° 0 mm 0 mps 629 mmHg 87%
    05:00 +15°C° 0 mm 0 mps 629 mmHg 86%
    06:00 +15°C° 0 mm 0 mps 629 mmHg 86%
    07:00 +19°C° 0.4 mm 1 mps 630 mmHg 82%
    08:00 +20°C° 0.4 mm 1 mps 630 mmHg 79%
    09:00 +22°C° 0.4 mm 1 mps 630 mmHg 75%
    10:00 +22°C° 1.2 mm 1 mps 631 mmHg 73%
    11:00 +23°C° 1.2 mm 1 mps 631 mmHg 72%
    12:00 +24°C° 1.2 mm 1 mps 631 mmHg 70%
    13:00 +24°C° 1.8 mm 1 mps 630 mmHg 71%
    14:00 +23°C° 1.8 mm 1 mps 630 mmHg 73%
    15:00 +23°C° 1.8 mm 2 mps 630 mmHg 74%
    16:00 +21°C° 1.9 mm 2 mps 630 mmHg 79%
    17:00 +20°C° 1.9 mm 2 mps 630 mmHg 83%
    18:00 +19°C° 1.9 mm 2 mps 630 mmHg 88%
    19:00 +19°C° 1.8 mm 1 mps 630 mmHg 90%
    20:00 +18°C° 1.8 mm 1 mps 630 mmHg 92%
    21:00 +16°C° 1.8 mm 1 mps 631 mmHg 93%
    22:00 +16°C° 1.2 mm 1 mps 631 mmHg 94%
    23:00 +15°C° 1.2 mm 1 mps 630 mmHg 95%

    30 June, Sunday

    Time Temperature Precipitation Wind Pressure Humidity
    00:00 +14°C° 1.2 mm 0 mps 630 mmHg 97%
    01:00 +14°C° 0.3 mm 0 mps 630 mmHg 97%
    02:00 +14°C° 0.3 mm 1 mps 630 mmHg 96%
    03:00 +14°C° 0.3 mm 1 mps 630 mmHg 96%
    04:00 +14°C° 0.3 mm 1 mps 630 mmHg 96%
    05:00 +14°C° 0.3 mm 0 mps 630 mmHg 96%
    06:00 +14°C° 0.3 mm 0 mps 630 mmHg 96%
    07:00 +15°C° 0.4 mm 1 mps 630 mmHg 94%
    08:00 +16°C° 0.4 mm 1 mps 631 mmHg 92%
    09:00 +18°C° 0.4 mm 1 mps 631 mmHg 90%
    10:00 +19°C° 1.2 mm 1 mps 631 mmHg 87%
    11:00 +19°C° 1.2 mm 1 mps 631 mmHg 85%
    12:00 +20°C° 1.2 mm 1 mps 631 mmHg 83%
    13:00 +20°C° 1.7 mm 1 mps 631 mmHg 84%
    14:00 +19°C° 1.7 mm 2 mps 630 mmHg 85%
    15:00 +18°C° 1.7 mm 2 mps 630 mmHg 86%
    16:00 +17°C° 2.9 mm 2 mps 630 mmHg 89%
    17:00 +16°C° 2.9 mm 2 mps 630 mmHg 93%
    18:00 +15°C° 2.9 mm 1 mps 630 mmHg 96%
    19:00 +14°C° 2.9 mm 1 mps 630 mmHg 97%
    20:00 +14°C° 2.9 mm 2 mps 630 mmHg 97%
    21:00 +13°C° 2.9 mm 2 mps 630 mmHg 97%
    22:00 +13°C° 0.5 mm 1 mps 630 mmHg 96%
    23:00 +12°C° 0.5 mm 1 mps 630 mmHg 95%
    Show more